Location: Aspenden
(51.9333°N, 0.0167°W)
Time: 17:50:19
(UTC+00:00)

Daily predictions for brighter satellites

Satellite Brightness Start Highest point End
(mag) Time Altitude Azimuth Time Altitude Azimuth Time Altitude Azimuth
Terra 2.2 21:03:45 10° SE 21:08:22 53° ENE 21:13:01 10° N
Cosmos 1980 Rocket 4.5 21:04:51 10° NNW 21:08:37 18° NNE 21:12:21 10° ENE
USA 267 3.7 21:03:46 10° ENE 21:09:51 39° SE 21:15:53 10° SSW
Cosmos 1455 3.0 21:07:10 10° N 21:10:44 37° ENE 21:14:17 10° SE
Cosmos 2369 Rocket 3.9 21:07:04 10° NW 21:11:44 27° WSW 21:16:23 10° SSW
Meteor 1-24 Rocket 4.0 21:08:09 10° SSE 21:13:11 47° E 21:18:21 10° NNE
Cosmos 1697 Rocket 4.4 21:09:10 10° NNW 21:13:45 25° NE 21:18:21 10° E
Cosmos 2315 Rocket 4.2 21:08:11 10° S 21:14:25 63° E 21:20:39 10° NNE
NOSS 2-1 (C) 4.2 21:11:27 10° NW 21:15:28 56° NE 21:21:01 10° ESE
RESURS DK-1 4.4 21:14:51 10° N 21:17:58 20° NE 21:21:05 10° E
Cosmos 1371 Rocket 4.5 21:13:59 10° S 21:18:52 42° ESE 21:23:51 10° NE
Spot 2 Rocket 3.6 21:16:27 10° SSE 21:21:32 86° WSW 21:26:41 10° NNW
NOSS 2-1 (D) 4.1 21:21:45 10° NW 21:25:52 65° NE 21:31:35 10° SE
CZ-4B R/B 3.1 21:23:34 10° N 21:26:10 30° WNW 21:28:45 10° SW
Lacrosse 5 rocket 1.2 21:23:36 10° WNW 21:27:25 84° SSW 21:31:28 10° ESE
Cosmos 1709 Rocket 4.2 21:21:38 10° NNW 21:27:47 77° W 21:34:00 10° S
ARIANE 5 R/B 2.9 21:23:53 10° SSE 21:28:18 60° ENE 21:32:43 10° N
SPOT 3 Rocket 4.2 21:24:26 10° S 21:29:30 52° W 21:34:36 10° NNW
Cosmos 2074 Rocket 4.4 21:29:50 10° N 21:36:01 54° ENE 21:42:02 10° SSE
ATLAS 2AS CENTAUR R/B 2.8 21:30:48 10° NW 21:38:06 87° NE 21:44:51 10° SE
Cosmos 1624 Rocket 4.1 21:35:28 10° S 21:40:36 58° ESE 21:45:44 10° NNE
Cosmos 1656 4.1 21:36:09 10° NNW 21:41:30 53° NE 21:46:52 10° SE
Cosmos 1190 Rocket 4.4 21:37:01 10° NNW 21:42:17 62° WSW 21:47:30 10° S
USA 234 3.3 21:39:34 10° ESE 21:46:09 79° SSW 21:52:45 10° WNW
Cosmos 1833 Rocket 4.4 21:44:39 10° SE 21:47:48 15° E 21:50:58 10° ENE
Cosmos 1455 Rocket 4.1 21:45:24 10° NNW 21:49:33 43° W 21:53:39 10° SSW
Cosmos 2154 Rocket 4.4 21:49:13 10° N 21:55:22 54° ENE 22:00:52 13° SSE
SPOT 5 3.7 21:52:49 10° S 21:57:06 41° W 22:01:16 10° NNW
Cosmos 1271 Rocket 2.9 21:53:36 10° NNW 21:57:36 72° W 22:01:15 12° S
Cosmos 2056 Rocket 3.6 21:54:54 10° SSW 22:00:17 81° ESE 22:05:45 10° NNE
Cosmos 1741 Rocket 4.5 21:57:05 10° NNW 22:02:19 56° ENE 22:07:02 13° SE
Meteor 2-5 Rocket 4.1 21:56:53 10° SSW 22:02:23 67° WNW 22:07:56 10° N
Cosmos 1025 Rocket 3.7 21:59:08 10° SSW 22:03:19 54° WNW 22:07:33 10° N
Cosmos 2344 4.4 21:58:20 10° NW 22:06:38 68° NE 22:17:57 10° ESE
Cosmos 676 Rocket 4.4 22:03:30 10° NNW 22:08:46 61° WSW 22:13:24 13° S
ERS-1 Rocket 4.0 22:05:17 10° SSW 22:10:01 41° W 22:14:48 10° NNW
USA 32 4.5 22:06:06 10° SSW 22:11:17 63° W 22:16:31 10° N
Cosmos 1420 Rocket 4.0 22:07:18 10° SSW 22:12:33 82° ESE 22:17:52 10° NNE
Cosmos 1607 3.9 22:11:35 10° SSW 22:17:47 72° SE 22:23:57 10° NE
Cosmos 1536 Rocket 3.5 22:13:48 12° S 22:17:47 78° E 22:22:09 10° NNE
CZ-2C R/B 4.3 22:13:21 10° N 22:17:57 60° WNW 22:22:26 10° SSW
Lacrosse 5 2.0 22:18:48 10° WNW 22:23:51 61° SW 22:27:56 15° SE
Cosmos 1606 Rocket 3.8 22:20:02 10° N 22:24:19 55° ENE 22:27:26 17° SSE
NOSS 2-1 (E) 4.1 22:20:05 10° NW 22:24:28 63° SW 22:29:25 16° SSE
SAR-Lupe-4 3.5 22:22:59 10° NNE 22:26:35 71° ESE 22:29:20 16° S
Cosmos 2184 Rocket 4.1 22:22:14 10° NNW 22:28:23 74° W 22:33:50 14° S
Cosmos 724 4.4 22:25:36 10° SSW 22:31:14 56° ESE 22:36:54 10° NE
Tiangong 3.5 22:32:24 10° SSW 22:32:27 10° SSW 22:32:27 10° SSW
Cosmos 1850 Rocket 4.0 22:29:51 10° NNW 22:35:07 85° WSW 22:39:02 18° SSE
Lacrosse 4 Rocket 4.3 22:33:36 10° W 22:36:43 20° NW 22:39:50 10° NNE
Cosmos 2228 3.0 22:33:51 10° NNW 22:38:06 74° W 22:41:10 18° S
Cosmos 1328 4.3 22:37:12 20° SSE 22:39:42 45° E 22:43:34 10° NNE
Cosmos 2341 Rocket 4.4 22:33:51 10° N 22:40:07 55° ENE 22:45:04 16° SSE
Meteor 1-21 Rocket 4.3 22:35:48 15° S 22:40:21 68° E 22:45:58 10° NNE
SL-16 R/B 4.5 22:36:12 10° NNW 22:40:24 21° NNE 22:44:35 10° E
FALCON 9 DEB 2.9 22:38:36 10° WSW 22:41:52 88° S 22:45:10 10° ENE
Cosmos 1703 3.3 22:38:48 15° SSW 22:41:57 78° WNW 22:45:50 10° N
SAR-Lupe-1 4.3 22:38:32 10° N 22:42:07 69° WNW 22:45:12 13° SSW
Cosmos 1408 3.9 22:43:33 18° SE 22:45:05 24° E 22:47:54 10° NE
Cosmos 1455 4.2 22:43:05 10° NW 22:45:59 21° W 22:48:54 10° SW
Terra 3.6 22:42:34 10° SW 22:46:25 24° W 22:50:18 10° NW
Cosmos 1825 4.3 22:46:54 11° ESE 22:48:40 15° E 22:50:48 10° NE
SL-8 R/B 3.7 22:44:49 10° W 22:49:32 57° S 22:54:17 10° ESE
ALOS 2 3.2 22:46:37 17° SE 22:49:44 49° ENE 22:54:00 10° N
Cosmos 1726 Rocket 3.5 22:46:26 10° N 22:50:46 78° E 22:53:36 21° SSE
USA 267 3.3 22:46:44 10° ENE 22:53:19 89° NNW 22:59:54 10° WSW
Cosmos 1980 Rocket 2.9 22:48:25 10° NNW 22:54:00 52° NE 22:59:14 12° SE
RESURS DK-1 2.3 22:52:18 10° NW 22:56:28 78° WSW 22:59:03 22° SSE
Cosmos 1697 Rocket 2.7 22:52:50 10° NNW 22:58:30 90° WNW 23:02:42 19° SSE
Cosmos 1331 Rocket 4.2 22:57:22 18° S 23:01:07 55° ESE 23:06:19 10° NNE
Cosmos 1452 Rocket 3.5 22:57:20 12° SSW 23:02:13 88° ESE 23:07:31 10° NNE
Lacrosse 5 rocket 2.9 23:03:11 10° W 23:06:02 19° SW 23:07:17 17° SSW
Spot 4 3.9 23:04:25 21° S 23:07:39 77° WSW 23:12:28 10° NNW
ASTEX 1 3.6 23:02:40 10° N 23:07:41 72° W 23:11:36 17° SSW
ERS-2 3.6 23:05:07 10° NE 23:08:03 23° E 23:09:26 18° SE
Cosmos 1892 3.4 23:06:34 23° SSE 23:08:23 38° E 23:11:53 10° NNE
USA 276 3.5 23:10:14 20° ESE 23:10:14 20° ESE 23:11:33 10° E
Cosmos 2084 Rocket 4.0 23:05:22 10° NW 23:09:09 50° NE 23:13:03 10° ESE
Cosmos 2084 3.4 23:05:34 10° SW 23:09:23 71° NW 23:13:18 10° NE
ADEOS Rocket 3.5 23:05:35 17° SSE 23:11:09 77° ENE 23:18:47 10° NNW
Cosmos 2058 Rocket 3.1 23:09:35 10° N 23:14:00 80° ENE 23:16:43 23° SSE
Cosmos 1110 Rocket 4.0 23:15:12 17° SSW 23:19:20 81° ESE 23:24:40 10° NNE
Cosmos 2181 Rocket 4.3 23:15:18 20° SSE 23:19:32 56° E 23:25:35 10° NNE
GP-B 3.3 23:15:40 10° N 23:20:05 65° W 23:23:05 20° SSW
Cosmos 2360 4.3 23:15:27 10° NW 23:21:09 67° WSW 23:25:00 21° SSE
Cosmos 2278 4.4 23:16:25 10° NNW 23:22:01 52° NE 23:27:31 10° SE
Cosmos 2322 Rocket 4.2 23:18:04 10° NNW 23:22:47 26° NE 23:27:28 10° E
Cosmos 1892 Rocket 3.5 23:22:22 22° S 23:25:16 87° WNW 23:29:42 10° N
ATLAS 2AS CENTAUR R/B 3.9 23:22:34 10° WNW 23:28:13 27° WSW 23:32:16 15° SSW
USA 234 4.2 23:26:12 19° S 23:29:48 31° SW 23:35:31 10° WNW
Cosmos 1833 Rocket 2.6 23:26:16 16° SSW 23:30:50 80° ESE 23:36:30 10° NNE
BREEZE-M DEB (TANK) 3.7 23:36:03 10° W 23:39:16 67° S 23:51:17 10° ESE
Okean 1-7 Rocket 3.8 23:39:49 24° SSE 23:42:17 60° E 23:46:42 10° NNE
Cosmos 1626 Rocket 3.9 23:42:03 24° SSE 23:44:23 53° E 23:48:37 10° NNE
Cosmos 2082 Rocket 2.6 23:41:31 22° S 23:45:00 49° ESE 23:50:29 10° NE
Cosmos 1821 Rocket 4.4 23:39:54 10° N 23:46:10 59° ENE 23:50:56 17° SSE
Meteor 1-27 4.2 23:42:01 10° NNW 23:47:39 85° W 23:51:21 22° S
Cosmos 1869 3.2 23:45:03 10° N 23:48:54 89° ENE 23:50:55 27° S
ATLAS 5 CENTAUR R/B 3.5 23:51:04 11° ESE 23:51:41 11° ESE 23:52:43 10° E
Cosmos-2242 3.6 23:50:35 10° N 23:54:45 49° ENE 23:57:29 20° SE
BREEZE-M DEB (TANK) 3.9 23:47:07 10° SW 23:56:14 43° SSE 23:59:28 10° E
